Airport details for: EHBK (Netherlands)

Metar

EHBK 170155Z AUTO 22008KT 9999 SCT036 BKN040 BKN044 15/12 Q1021

General details

ICAO: EHBK
IATA: MST
Name (city): Maastricht Aachen
Major:
Country: Netherlands
vACC: Dutch VACC
Description:
Scenery links:
FS9 scenery: Download
FSX/P3D scenery: Download
XP scenery:
Elevation: 375 ft.
Transition altitude: 3000 ft.
MSA: 9000 ft.
Latitude: 50.915834
Longitude: 5.776945
EHBK Charts
EHBK Notams
EHBK Online stations

Runways

Number Course Length Elevation Lat Lon ILS ILS freq ILS FAC GP
03 32° 9022ft / 2750 m 366ft 50.901836 5.76005 111.55 32° 3.0°
21 212° 9022ft / 2750 m 371ft 50.918884 5.777311 111.55 212° 3.0°